Snowfall_Accumulation
0.0 0.0 0.0 0.0 0.0 0.0 0.0 0.0 0.0 nan nan nan nan nan nan nan nan nan nan nan nan nan nan nan nan nan nan
0.0 0.0 0.0 0.0 0.0 0.0 0.0 0.0 0.0 nan nan nan nan nan nan nan nan nan nan nan nan nan nan nan nan nan nan
0.0 0.0 0.0 0.0 0.0 0.0 0.0 0.0 0.0 nan nan nan nan nan nan nan nan nan nan nan nan nan nan nan nan nan nan
0.0 0.0 0.0 0.0 0.0 0.0 0.0 0.0 0.0 0.0 nan nan nan nan nan nan nan nan nan nan nan nan nan nan nan nan nan
0.1 0.0 0.0 0.0 0.0 0.0 0.0 0.0 0.0 0.0 0.0 0.0 0.0 0.0 0.0 nan nan nan nan nan nan nan nan nan nan nan nan
0.1 0.0 0.0 0.0 0.0 0.0 0.0 0.1 0.4 0.0 0.0 0.0 0.0 0.0 0.0 0.0 nan nan nan nan nan nan nan nan nan nan nan
0.0 0.0 0.0 0.0 0.0 0.0 0.0 0.4 0.3 0.0 0.0 0.0 0.0 0.0 0.0 0.0 nan nan nan nan nan nan nan nan nan nan nan
0.0 0.0 0.0 0.0 0.0 0.0 0.1 0.1 0.0 0.0 0.0 0.5 0.0 0.0 0.0 0.0 nan nan nan nan nan nan nan nan nan nan nan
nan nan nan nan nan 0.0 0.4 1.2 0.3 0.0 0.0 0.2 0.0 0.0 0.0 0.0 0.0 nan nan nan nan nan nan nan nan nan 0.0
0.0 0.0 nan nan nan 0.0 0.2 2.2 1.2 1.4 0.0 1.6 0.1 0.2 2.4 0.0 0.0 0.0 0.0 nan nan nan nan nan nan 0.0 0.0
0.0 0.0 0.0 0.0 0.0 0.0 0.0 0.5 3.0 2.2 0.0 1.2 2.1 1.0 2.5 1.6 0.0 0.0 0.0 0.0 0.0 0.0 nan nan nan 0.0 0.0
0.0 0.0 0.2 0.3 0.2 0.2 0.0 0.1 0.1 0.6 0.0 0.0 11.4 3.0 5.5 5.7 2.0 0.0 0.1 0.1 0.2 0.3 0.1 nan nan nan nan
0.1 0.4 0.4 0.3 0.1 0.3 0.1 0.0 0.1 0.0 0.0 0.1 2.4 0.9 3.2 6.4 4.9 1.5 1.0 0.5 0.4 0.6 0.6 0.6 0.4 0.2 0.3
0.4 0.0 0.0 1.3 1.2 0.7 1.9 1.2 3.6 1.6 0.2 0.2 0.3 0.8 8.2 2.5 3.3 4.1 0.8 5.8 0.5 0.6 0.8 0.6 0.4 0.5 0.6
0.8 0.9 0.8 1.3 1.5 1.0 2.2 3.4 7.5 4.4 3.9 2.2 1.0 0.5 1.3 3.3 8.8 1.8 1.4 1.5 0.8 1.3 1.6 1.1 0.6 0.5 0.7
2.2 2.6 3.9 5.1 4.6 4.7 4.8 5.6 7.5 4.6 5.3 4.5 5.4 10.1 5.9 4.2 2.1 2.6 1.8 1.9 1.3 0.9 1.0 3.2 1.3 0.4 0.1
4.8 6.2 7.1 7.6 6.2 7.0 5.9 5.8 7.1 5.4 5.8 6.8 13.6 14.4 18.5 11.9 1.9 nan 5.8 2.8 2.4 2.7 1.0 1.5 2.7 1.1 0.2
Water_Equivalent
0.00 0.00 0.00 0.00 0.00 0.00 0.00 0.00 0.00 nan nan nan nan nan nan nan nan nan nan nan nan nan nan nan nan nan nan
0.00 0.00 0.00 0.00 0.00 0.00 0.00 0.00 0.00 nan nan nan nan nan nan nan nan nan nan nan nan nan nan nan nan nan nan
0.00 0.00 0.00 0.00 0.00 0.00 0.00 0.00 0.00 nan nan nan nan nan nan nan nan nan nan nan nan nan nan nan nan nan nan
0.00 0.00 0.00 0.00 0.00 0.00 0.00 0.00 0.00 0.00 nan nan nan nan nan nan nan nan nan nan nan nan nan nan nan nan nan
0.03 0.01 0.00 0.00 0.00 0.00 0.00 0.00 0.00 0.00 0.00 0.00 0.00 0.00 0.00 nan nan nan nan nan nan nan nan nan nan nan nan
0.02 0.00 0.00 0.00 0.00 0.00 0.00 0.04 0.12 0.00 0.00 0.00 0.00 0.00 0.00 0.00 nan nan nan nan nan nan nan nan nan nan nan
0.00 0.00 0.00 0.00 0.00 0.00 0.01 0.09 0.06 0.00 0.00 0.01 0.00 0.00 0.00 0.00 nan nan nan nan nan nan nan nan nan nan nan
0.00 0.00 0.00 0.00 0.00 0.01 0.02 0.02 0.00 0.00 0.00 0.13 0.00 0.00 0.00 0.00 nan nan nan nan nan nan nan nan nan nan nan
nan nan nan nan nan 0.00 0.13 0.28 0.06 0.00 0.00 0.03 0.00 0.00 0.00 0.00 0.00 nan nan nan nan nan nan nan nan nan 0.00
0.00 0.00 nan nan nan 0.00 0.08 0.48 0.28 0.31 0.00 0.32 0.02 0.05 0.45 0.00 0.00 0.00 0.00 nan nan nan nan nan nan 0.00 0.00
0.00 0.00 0.00 0.00 0.00 0.01 0.00 0.16 0.66 0.49 0.00 0.27 0.52 0.24 0.52 0.35 0.00 0.00 0.00 0.00 0.00 0.00 nan nan nan 0.00 0.00
0.00 0.00 0.06 0.11 0.08 0.08 0.00 0.04 0.05 0.12 0.01 0.01 2.39 0.59 1.07 0.96 0.37 0.00 0.02 0.02 0.05 0.09 0.03 nan nan nan nan
0.03 0.13 0.14 0.10 0.05 0.09 0.02 0.02 0.02 0.01 0.00 0.02 0.64 0.22 0.71 1.10 0.78 0.31 0.21 0.12 0.10 0.17 0.16 0.17 0.13 0.09 0.11
0.09 0.01 0.00 0.36 0.33 0.21 0.48 0.32 0.78 0.45 0.05 0.05 0.08 0.18 1.56 0.55 0.67 0.72 0.21 1.07 0.15 0.16 0.21 0.17 0.12 0.14 0.18
0.19 0.20 0.17 0.31 0.36 0.28 0.52 0.74 1.28 0.84 0.74 0.56 0.25 0.13 0.34 0.65 1.48 0.37 0.28 0.31 0.22 0.34 0.38 0.30 0.15 0.13 0.18
0.49 0.57 0.74 0.96 0.84 0.96 0.98 1.00 1.27 0.83 0.94 0.90 1.06 1.65 1.26 1.01 0.48 0.58 0.43 0.47 0.33 0.26 0.26 0.74 0.35 0.12 0.03
1.07 1.31 1.46 1.48 1.23 1.21 1.02 1.03 1.23 0.95 1.04 1.27 2.02 2.32 2.42 1.51 0.42 nan 1.22 0.71 0.62 0.57 0.26 0.38 0.67 0.35 0.05
SL_Ratio
nan nan nan nan nan nan nan nan nan nan nan nan nan nan nan nan nan nan nan nan nan nan nan nan nan nan nan
nan nan nan nan nan nan nan nan nan nan nan nan nan nan nan nan nan nan nan nan nan nan nan nan nan nan nan
nan nan nan nan 0.0 3.3 nan nan nan nan nan nan nan nan nan nan nan nan nan nan nan nan nan nan nan nan nan
2.5 5.0 nan nan nan nan nan nan nan nan nan nan nan nan nan nan nan nan nan nan nan nan nan nan nan nan nan
2.6 2.9 nan nan nan nan nan nan nan nan nan nan nan nan nan nan nan nan nan nan nan nan nan nan nan nan nan
2.8 nan nan nan nan nan 5.0 2.5 3.7 nan nan nan nan nan nan nan nan nan nan nan nan nan nan nan nan nan nan
nan nan nan nan nan 6.0 4.4 3.9 4.9 nan nan 4.2 nan nan nan nan nan nan nan nan nan nan nan nan nan nan nan
nan nan nan nan nan 4.2 4.1 4.4 nan nan nan 3.6 nan nan nan nan nan nan nan nan nan nan nan nan nan nan nan
nan nan nan nan nan nan 3.2 4.3 4.3 nan nan 5.9 nan nan nan nan nan nan nan nan nan nan nan nan nan nan nan
nan nan nan nan nan nan 2.6 4.5 4.1 4.4 2.9 4.8 5.4 4.8 5.3 nan nan nan nan nan nan nan nan nan nan nan nan
nan nan nan nan nan 2.2 nan 3.0 4.6 4.5 nan 4.4 4.1 4.0 4.9 4.7 nan nan nan nan nan nan nan nan nan nan 5.0
3.8 nan 2.9 2.8 2.5 2.6 2.9 2.6 2.5 4.7 2.5 3.5 4.8 5.1 5.2 5.9 5.5 5.0 4.5 3.9 3.2 3.4 2.5 nan nan nan nan
4.1 3.2 2.9 2.7 2.8 3.1 3.0 2.9 2.9 2.7 0.0 3.2 3.8 4.3 4.5 5.8 6.3 4.8 4.5 4.0 3.5 3.4 3.6 3.5 3.3 2.6 2.5
3.9 3.6 3.8 3.5 3.8 3.3 4.1 3.8 4.7 3.6 3.2 3.1 3.4 4.4 5.3 4.6 4.9 5.7 3.9 5.4 3.5 3.7 3.9 3.6 3.8 3.9 3.4
4.2 4.5 4.7 4.3 4.3 3.6 4.3 4.6 5.8 5.2 5.2 3.8 4.0 4.0 3.9 5.1 6.0 4.9 4.9 4.8 3.6 3.8 4.1 3.7 3.7 3.7 4.1
4.4 4.6 5.2 5.3 5.4 4.9 4.9 5.6 5.9 5.5 5.7 5.0 5.1 6.1 4.7 4.2 4.4 4.6 4.2 4.1 3.8 3.7 3.7 4.4 3.7 3.5 4.6
4.5 4.7 4.9 5.1 5.1 5.8 5.7 5.6 5.7 5.7 5.5 5.3 6.7 6.2 7.6 7.9 4.5 nan 4.7 3.9 3.9 4.7 3.8 4.1 4.0 3.2 3.1